This demonstration page uses our WeatherBlox Daily Observations layout. Learn more.

Left ArrowRight Arrow

Hourly Observations for December 31, 2017

Temp ( °F °C ) Dew Point ( °F °C ) Humidity (%) Winds ( mph kmh ) Pressure ( in mb ) Visibility ( mi km ) Precip ( " mm )
12:15 am 00:15 Mostly Cloudy 21 -6 10 -12 63 63 NNW 10 17 30.27 1025 10 16 N/A
12:35 am 00:35 Partly Cloudy 21 -6 10 -12 63 63 NW 6 9 30.27 1025 10 16 N/A
12:55 am 00:55 Clear 19 -7 10 -12 68 68 WNW 15 24 30.30 1026 10 16 N/A
1:15 am 01:15 Clear 21 -6 9 -13 58 58 NW 9 15 30.27 1025 10 16 N/A
1:35 am 01:35 Clear 19 -7 9 -13 63 63 WNW 12 19 30.30 1026 10 16 N/A
1:55 am 01:55 Clear 19 -7 7 -14 58 58 NW 13 20 30.30 1026 10 16 N/A
2:15 am 02:15 Clear 19 -7 9 -13 63 63 WNW 10 17 30.33 1027 10 16 N/A
2:35 am 02:35 Clear 19 -7 7 -14 58 58 NW 14 22 30.33 1027 10 16 N/A
2:55 am 02:55 Clear 19 -7 5 -15 53 53 NW 17 28 30.33 1027 10 16 N/A
3:15 am 03:15 Clear 19 -7 5 -15 53 53 NNW 16 26 30.33 1027 10 16 N/A
3:35 am 03:35 Clear 19 -7 5 -15 53 53 NW 14 22 30.36 1028 10 16 N/A
3:55 am 03:55 Clear 19 -7 5 -15 53 53 NW 15 24 30.36 1028 10 16 N/A
4:15 am 04:15 Clear 18 -8 7 -14 62 62 NW 10 17 30.36 1028 10 16 N/A
4:35 am 04:35 Clear 18 -8 5 -15 58 58 NW 5 7 30.36 1028 10 16 N/A
4:55 am 04:55 Clear 18 -8 5 -15 58 58 N N/A 30.39 1029 10 16 N/A
5:15 am 05:15 Clear 18 -8 7 -14 62 62 NW 6 9 30.39 1029 10 16 N/A
5:35 am 05:35 Clear 16 -9 7 -14 67 67 WNW 5 7 30.39 1029 10 16 N/A
5:55 am 05:55 Clear 16 -9 7 -14 67 67 W 7 11 30.39 1029 10 16 N/A
6:15 am 06:15 Clear 18 -8 9 -13 68 68 WNW 8 13 30.39 1029 10 16 N/A
6:35 am 06:35 Clear 18 -8 9 -13 68 68 WNW 10 17 30.39 1029 10 16 N/A
6:55 am 06:55 Clear 16 -9 9 -13 73 73 NW 6 9 30.39 1029 10 16 N/A
7:15 am 07:15 Clear 16 -9 7 -14 67 67 NW 7 11 30.39 1029 10 16 N/A
7:35 am 07:35 Partly Cloudy 18 -8 7 -14 62 62 NW 6 9 30.42 1030 10 16 N/A
7:55 am 07:55 Mostly Cloudy 16 -9 9 -13 73 73 N N/A 30.42 1030 10 16 N/A
8:15 am 08:15 Partly Cloudy 18 -8 7 -14 62 62 N N/A 30.42 1030 10 16 N/A
8:35 am 08:35 Partly Cloudy 18 -8 9 -13 68 68 NW 7 11 30.45 1031 10 16 N/A
8:55 am 08:55 Sunny 19 -7 7 -14 58 58 NNW 7 11 30.45 1031 10 16 N/A
9:15 am 09:15 Mostly Cloudy 19 -7 9 -13 63 63 NNW 10 17 30.45 1031 10 16 N/A
9:35 am 09:35 Cloudy 19 -7 7 -14 58 58 N 10 17 30.45 1031 10 16 N/A
9:55 am 09:55 Cloudy 19 -7 7 -14 58 58 NNW 10 17 30.45 1031 10 16 N/A
10:15 am 10:15 Mostly Cloudy 19 -7 7 -14 58 58 N 9 15 30.45 1031 10 16 N/A
10:35 am 10:35 Mostly Cloudy 19 -7 7 -14 58 58 NNW 12 19 30.42 1030 10 16 N/A
10:55 am 10:55 Cloudy 19 -7 5 -15 53 53 NNW 13 20 30.42 1030 10 16 N/A
11:15 am 11:15 Cloudy 19 -7 5 -15 53 53 N 13 20 30.42 1030 10 16 N/A
11:35 am 11:35 Cloudy 21 -6 5 -15 49 49 N 13 20 30.42 1030 10 16 N/A
11:55 am 11:55 Cloudy 21 -6 5 -15 49 49 NNW 9 15 30.45 1031 10 16 N/A
12:15 pm 12:15 Cloudy 21 -6 5 -15 49 49 NNW 12 19 30.42 1030 10 16 N/A
12:35 pm 12:35 Cloudy 21 -6 5 -15 49 49 NNW 8 13 30.42 1030 10 16 N/A
12:55 pm 12:55 Cloudy 21 -6 5 -15 49 49 NNW 9 15 30.45 1031 10 16 N/A
1:15 pm 13:15 Cloudy 21 -6 5 -15 49 49 N 9 15 30.42 1030 10 16 N/A
1:35 pm 13:35 Cloudy 21 -6 5 -15 49 49 N 17 28 30.42 1030 10 16 N/A
1:55 pm 13:55 Cloudy 21 -6 5 -15 49 49 NNW 15 24 30.42 1030 10 16 N/A
2:15 pm 14:15 Cloudy 21 -6 7 -14 54 54 N 12 19 30.42 1030 10 16 N/A
2:35 pm 14:35 Cloudy 21 -6 9 -13 58 58 N 14 22 30.42 1030 10 16 N/A
2:55 pm 14:55 Cloudy 21 -6 10 -12 63 63 N 14 22 30.42 1030 7 11 N/A
3:15 pm 15:15 Cloudy with Light Snow 21 -6 12 -11 68 68 NNW 14 22 30.42 1030 5 8 N/A
3:35 pm 15:35 Cloudy with Light Snow 21 -6 12 -11 68 68 NW 10 17 30.42 1030 5 8 N/A
3:55 pm 15:55 Cloudy 21 -6 12 -11 68 68 NNW 8 13 30.42 1030 10 16 N/A
4:15 pm 16:15 Cloudy 21 -6 12 -11 68 68 NNW 12 19 30.42 1030 10 16 N/A
4:35 pm 16:35 Cloudy 21 -6 10 -12 63 63 N 10 17 30.42 1030 10 16 N/A
4:55 pm 16:55 Cloudy 19 -7 10 -12 68 68 NNW 8 13 30.42 1030 10 16 N/A
5:15 pm 17:15 Partly Cloudy 19 -7 10 -12 68 68 N 6 9 30.45 1031 10 16 N/A
5:35 pm 17:35 Clear 19 -7 10 -12 68 68 NNW 3 6 30.45 1031 10 16 N/A
5:55 pm 17:55 Partly Cloudy 18 -8 10 -12 73 73 N N/A 30.45 1031 10 16 N/A
6:15 pm 18:15 Clear 18 -8 10 -12 73 73 NW 3 6 30.45 1031 10 16 N/A
6:35 pm 18:35 Clear 16 -9 10 -12 79 79 WNW 3 6 30.45 1031 10 16 N/A
7:15 pm 19:15 Clear 14 -10 10 -12 85 85 WNW 6 9 30.45 1031 10 16 N/A
7:35 pm 19:35 Clear 18 -8 10 -12 73 73 N 3 6 30.45 1031 10 16 N/A
7:55 pm 19:55 Clear 18 -8 10 -12 73 73 N N/A 30.48 1032 10 16 N/A
8:15 pm 20:15 Clear 18 -8 9 -13 68 68 NNW 3 6 30.48 1032 10 16 N/A
8:35 pm 20:35 Clear 18 -8 9 -13 68 68 N N/A 30.48 1032 10 16 N/A
8:55 pm 20:55 Clear 18 -8 9 -13 68 68 NNW 5 7 30.48 1032 10 16 N/A
9:15 pm 21:15 Clear 16 -9 7 -14 67 67 N 3 6 30.48 1032 10 16 N/A
9:35 pm 21:35 Clear 18 -8 7 -14 62 62 N 5 7 30.48 1032 10 16 N/A
9:55 pm 21:55 Clear 18 -8 5 -15 58 58 N N/A 30.48 1032 10 16 N/A
10:15 pm 22:15 Clear 16 -9 7 -14 67 67 N N/A 30.48 1032 10 16 N/A
10:35 pm 22:35 Clear 16 -9 7 -14 67 67 N N/A 30.48 1032 10 16 N/A
10:55 pm 22:55 Clear 14 -10 5 -15 67 67 N N/A 30.48 1032 10 16 N/A
11:15 pm 23:15 Clear 14 -10 5 -15 67 67 NW 3 6 30.48 1032 10 16 N/A
11:35 pm 23:35 Clear 12 -11 7 -14 79 79 NW 7 11 30.50 1033 10 16 N/A
11:55 pm 23:55 Clear 14 -10 7 -14 73 73 NW 9 15 30.48 1032 10 16 N/A

Powered by AerisWeather